Time,TemperatureF,DewpointF,PressureIn,WindDirection,WindDirectionDegrees,WindSpeedMPH,WindSpeedGustMPH,Humidity,HourlyPrecipIn,Conditions,Clouds,dailyrainin,SoftwareType,DateUTC
2013-01-01 00:02:00,30.0,23.0,-100.00,West,259,1.0,3.0,75,-99.99,,,-99.99,,2013-01-01 08:02:00,
2013-01-01 00:11:00,31.0,23.0,-100.00,SW,225,1.0,2.0,71,-99.99,,,-99.99,,2013-01-01 08:11:00,
2013-01-01 00:22:00,29.0,23.0,-100.00,WSW,242,1.0,1.0,79,-99.99,,,-99.99,,2013-01-01 08:22:00,
2013-01-01 00:32:00,29.0,23.0,-100.00,WSW,242,1.0,1.0,79,-99.99,,,-99.99,,2013-01-01 08:32:00,
2013-01-01 00:42:00,28.0,23.0,-100.00,WSW,246,1.0,2.0,81,-99.99,,,-99.99,,2013-01-01 08:42:00,
2013-01-01 00:53:00,28.0,24.0,-100.00,WSW,258,1.0,1.0,84,-99.99,,,-99.99,,2013-01-01 08:53:00,
2013-01-01 01:02:00,28.0,24.0,-100.00,WSW,258,1.0,1.0,84,-99.99,,,-99.99,,2013-01-01 09:02:00,
2013-01-01 01:11:00,27.0,23.0,-100.00,West,261,1.0,2.0,84,-99.99,,,-99.99,,2013-01-01 09:11:00,
2013-01-01 01:22:00,27.0,23.0,-100.00,WSW,258,1.0,2.0,86,-99.99,,,-99.99,,2013-01-01 09:22:00,
2013-01-01 01:32:00,27.0,23.0,-100.00,WSW,243,1.0,1.0,86,-99.99,,,-99.99,,2013-01-01 09:32:00,
2013-01-01 01:42:00,27.0,24.0,-100.00,WSW,244,1.0,2.0,87,-99.99,,,-99.99,,2013-01-01 09:42:00,
2013-01-01 01:52:00,27.0,23.0,-100.00,SSE,147,1.0,2.0,86,-99.99,,,-99.99,,2013-01-01 09:52:00,
2013-01-01 02:01:00,27.0,23.0,-100.00,SSE,147,1.0,2.0,86,-99.99,,,-99.99,,2013-01-01 10:01:00,
2013-01-01 02:12:00,27.0,24.0,-100.00,SE,133,1.0,1.0,88,-99.99,,,-99.99,,2013-01-01 10:12:00,
2013-01-01 02:22:00,28.0,24.0,-100.00,West,262,1.0,1.0,84,-99.99,,,-99.99,,2013-01-01 10:22:00,
2013-01-01 02:32:00,29.0,24.0,-100.00,West,259,1.0,1.0,80,-99.99,,,-99.99,,2013-01-01 10:32:00,
2013-01-01 02:42:00,28.0,23.0,-100.00,WNW,288,1.0,1.0,82,-99.99,,,-99.99,,2013-01-01 10:42:00,
2013-01-01 02:52:00,29.0,24.0,-100.00,SE,138,1.0,1.0,82,-99.99,,,-99.99,,2013-01-01 10:52:00,
2013-01-01 03:02:00,30.0,24.0,-100.00,ESE,105,2.0,3.0,79,-99.99,,,-99.99,,2013-01-01 11:02:00,
2013-01-01 03:12:00,31.0,24.0,-100.00,ESE,107,3.0,5.0,74,-99.99,,,-99.99,,2013-01-01 11:12:00,
2013-01-01 03:22:00,31.0,24.0,-100.00,ESE,109,3.0,6.0,74,-99.99,,,-99.99,,2013-01-01 11:22:00,
2013-01-01 03:32:00,32.0,24.0,-100.00,ESE,107,4.0,7.0,72,-99.99,,,-99.99,,2013-01-01 11:32:00,
2013-01-01 03:42:00,32.0,24.0,-100.00,East,101,4.0,6.0,71,-99.99,,,-99.99,,2013-01-01 11:42:00,
2013-01-01 03:52:00,32.0,23.0,-100.00,ESE,107,4.0,6.0,70,-99.99,,,-99.99,,2013-01-01 11:52:00,
2013-01-01 04:02:00,32.0,23.0,-100.00,ESE,107,4.0,6.0,70,-99.99,,,-99.99,,2013-01-01 12:02:00,
2013-01-01 04:12:00,33.0,24.0,-100.00,ESE,107,5.0,7.0,69,-99.99,,,-99.99,,2013-01-01 12:12:00,
2013-01-01 04:22:00,32.0,23.0,-100.00,ESE,104,6.0,8.0,70,-99.99,,,-99.99,,2013-01-01 12:22:00,
2013-01-01 04:32:00,32.0,24.0,-100.00,East,97,5.0,8.0,71,-99.99,,,-99.99,,2013-01-01 12:32:00,
2013-01-01 04:42:00,32.0,24.0,-100.00,East,97,5.0,8.0,71,-99.99,,,-99.99,,2013-01-01 12:42:00,
2013-01-01 04:52:00,32.0,24.0,-100.00,East,101,5.0,7.0,71,-99.99,,,-99.99,,2013-01-01 12:52:00,
2013-01-01 05:02:00,32.0,24.0,-100.00,East,100,6.0,9.0,71,-99.99,,,-99.99,,2013-01-01 13:02:00,
2013-01-01 05:12:00,32.0,24.0,-100.00,ESE,102,6.0,9.0,71,-99.99,,,-99.99,,2013-01-01 13:12:00,
2013-01-01 05:22:00,32.0,24.0,-100.00,ESE,106,6.0,9.0,72,-99.99,,,-99.99,,2013-01-01 13:22:00,
2013-01-01 05:32:00,32.0,24.0,-100.00,East,101,6.0,10.0,71,-99.99,,,-99.99,,2013-01-01 13:32:00,
2013-01-01 05:42:00,33.0,24.0,-100.00,East,95,6.0,10.0,70,-99.99,,,-99.99,,2013-01-01 13:42:00,
2013-01-01 05:52:00,33.0,24.0,-100.00,East,96,7.0,12.0,68,-99.99,,,-99.99,,2013-01-01 13:52:00,
2013-01-01 06:02:00,33.0,24.0,-100.00,East,96,7.0,12.0,68,-99.99,,,-99.99,,2013-01-01 14:02:00,
2013-01-01 06:12:00,33.0,23.0,-100.00,ESE,102,6.0,11.0,67,-99.99,,,-99.99,,2013-01-01 14:12:00,
2013-01-01 06:22:00,32.0,22.0,-100.00,East,101,6.0,8.0,67,-99.99,,,-99.99,,2013-01-01 14:22:00,
2013-01-01 06:32:00,33.0,23.0,-100.00,East,96,6.0,9.0,66,-99.99,,,-99.99,,2013-01-01 14:32:00,
2013-01-01 06:42:00,33.0,23.0,-100.00,East,99,7.0,13.0,66,-99.99,,,-99.99,,2013-01-01 14:42:00,
2013-01-01 06:52:00,33.0,23.0,-100.00,East,101,7.0,11.0,66,-99.99,,,-99.99,,2013-01-01 14:52:00,
2013-01-01 07:02:00,33.0,23.0,-100.00,East,99,8.0,12.0,66,-99.99,,,-99.99,,2013-01-01 15:02:00,
2013-01-01 07:12:00,33.0,23.0,-100.00,East,94,8.0,14.0,67,-99.99,,,-99.99,,2013-01-01 15:12:00,
2013-01-01 07:22:00,33.0,23.0,-100.00,East,92,9.0,14.0,67,-99.99,,,-99.99,,2013-01-01 15:22:00,
2013-01-01 07:32:00,32.0,22.0,-100.00,East,89,9.0,15.0,67,-99.99,,,-99.99,,2013-01-01 15:32:00,
2013-01-01 07:42:00,32.0,22.0,-100.00,East,89,9.0,15.0,67,-99.99,,,-99.99,,2013-01-01 15:42:00,
2013-01-01 07:52:00,33.0,23.0,-100.00,East,89,9.0,14.0,67,-99.99,,,-99.99,,2013-01-01 15:52:00,
2013-01-01 08:02:00,33.0,23.0,-100.00,East,87,9.0,13.0,67,-99.99,,,-99.99,,2013-01-01 16:02:00,
2013-01-01 08:12:00,32.0,23.0,-100.00,East,83,10.0,17.0,68,-99.99,,,-99.99,,2013-01-01 16:12:00,
2013-01-01 08:22:00,33.0,24.0,-100.00,East,85,10.0,18.0,68,-99.99,,,-99.99,,2013-01-01 16:22:00,
2013-01-01 08:32:00,33.0,23.0,-100.00,East,90,10.0,16.0,67,-99.99,,,-99.99,,2013-01-01 16:32:00,
2013-01-01 08:42:00,33.0,23.0,-100.00,East,90,10.0,16.0,67,-99.99,,,-99.99,,2013-01-01 16:42:00,
2013-01-01 08:52:00,34.0,24.0,-100.00,East,93,10.0,16.0,66,-99.99,,,-99.99,,2013-01-01 16:52:00,
2013-01-01 09:02:00,34.0,23.0,-100.00,East,91,11.0,16.0,65,-99.99,,,-99.99,,2013-01-01 17:02:00,
2013-01-01 09:12:00,35.0,24.0,-100.00,East,87,11.0,18.0,63,-99.99,,,-99.99,,2013-01-01 17:12:00,
2013-01-01 09:22:00,35.0,24.0,-100.00,East,94,10.0,16.0,63,-99.99,,,-99.99,,2013-01-01 17:22:00,
2013-01-01 09:32:00,35.0,24.0,-100.00,East,90,9.0,17.0,64,-99.99,,,-99.99,,2013-01-01 17:32:00,
2013-01-01 09:42:00,35.0,24.0,-100.00,East,90,9.0,17.0,64,-99.99,,,-99.99,,2013-01-01 17:42:00,
2013-01-01 09:52:00,35.0,24.0,-100.00,East,90,11.0,17.0,63,-99.99,,,-99.99,,2013-01-01 17:52:00,
2013-01-01 10:02:00,35.0,23.0,-100.00,East,85,11.0,17.0,61,-99.99,,,-99.99,,2013-01-01 18:02:00,
2013-01-01 10:12:00,35.0,23.0,-100.00,ENE,73,10.0,18.0,60,-99.99,,,-99.99,,2013-01-01 18:12:00,
2013-01-01 10:22:00,35.0,23.0,-100.00,ENE,75,10.0,16.0,60,-99.99,,,-99.99,,2013-01-01 18:22:00,
2013-01-01 10:33:00,35.0,23.0,-100.00,ENE,78,11.0,18.0,62,-99.99,,,-99.99,,2013-01-01 18:33:00,
2013-01-01 10:42:00,35.0,23.0,-100.00,ENE,78,11.0,18.0,62,-99.99,,,-99.99,,2013-01-01 18:42:00,
2013-01-01 10:52:00,35.0,23.0,-100.00,East,84,12.0,18.0,62,-99.99,,,-99.99,,2013-01-01 18:52:00,
2013-01-01 11:02:00,35.0,24.0,-100.00,East,82,11.0,17.0,64,-99.99,,,-99.99,,2013-01-01 19:02:00,
2013-01-01 11:12:00,35.0,24.0,-100.00,East,84,11.0,20.0,63,-99.99,,,-99.99,,2013-01-01 19:12:00,
2013-01-01 11:22:00,36.0,25.0,-100.00,East,86,11.0,18.0,63,-99.99,,,-99.99,,2013-01-01 19:22:00,
2013-01-01 11:32:00,36.0,25.0,-100.00,East,86,11.0,18.0,63,-99.99,,,-99.99,,2013-01-01 19:32:00,
2013-01-01 11:42:00,36.0,25.0,-100.00,East,81,11.0,18.0,64,-99.99,,,-99.99,,2013-01-01 19:42:00,
2013-01-01 11:52:00,36.0,25.0,-100.00,East,89,13.0,21.0,63,-99.99,,,-99.99,,2013-01-01 19:52:00,
2013-01-01 12:02:00,36.0,25.0,-100.00,East,89,13.0,21.0,63,-99.99,,,-99.99,,2013-01-01 20:02:00,
2013-01-01 12:12:00,36.0,24.0,-100.00,East,85,13.0,21.0,62,-99.99,,,-99.99,,2013-01-01 20:12:00,
2013-01-01 12:22:00,37.0,25.0,-100.00,East,85,12.0,19.0,61,-99.99,,,-99.99,,2013-01-01 20:22:00,
2013-01-01 12:32:00,37.0,24.0,-100.00,East,79,12.0,22.0,60,-99.99,,,-99.99,,2013-01-01 20:32:00,
2013-01-01 12:42:00,37.0,23.0,-100.00,ENE,77,13.0,19.0,57,-99.99,,,-99.99,,2013-01-01 20:42:00,
2013-01-01 12:52:00,37.0,22.0,-100.00,East,81,13.0,22.0,55,-99.99,,,-99.99,,2013-01-01 20:52:00,
2013-01-01 13:02:00,38.0,23.0,-100.00,East,79,14.0,23.0,54,-99.99,,,-99.99,,2013-01-01 21:02:00,
2013-01-01 13:12:00,38.0,23.0,-100.00,East,80,13.0,22.0,54,-99.99,,,-99.99,,2013-01-01 21:12:00,
2013-01-01 13:22:00,38.0,23.0,-100.00,East,82,13.0,23.0,54,-99.99,,,-99.99,,2013-01-01 21:22:00,
2013-01-01 13:32:00,38.0,22.0,-100.00,East,81,13.0,21.0,53,-99.99,,,-99.99,,2013-01-01 21:32:00,
2013-01-01 13:42:00,38.0,22.0,-100.00,East,80,13.0,22.0,52,-99.99,,,-99.99,,2013-01-01 21:42:00,
2013-01-01 13:52:00,37.0,21.0,-100.00,East,87,13.0,23.0,53,-99.99,,,-99.99,,2013-01-01 21:52:00,
2013-01-01 14:02:00,37.0,21.0,-100.00,East,87,13.0,23.0,53,-99.99,,,-99.99,,2013-01-01 22:02:00,
2013-01-01 14:12:00,37.0,21.0,-100.00,East,82,13.0,20.0,52,-99.99,,,-99.99,,2013-01-01 22:12:00,
2013-01-01 14:22:00,37.0,21.0,-100.00,East,82,14.0,21.0,51,-99.99,,,-99.99,,2013-01-01 22:22:00,
2013-01-01 14:32:00,37.0,20.0,-100.00,ENE,78,14.0,22.0,50,-99.99,,,-99.99,,2013-01-01 22:32:00,
2013-01-01 14:42:00,37.0,19.0,-100.00,East,79,14.0,23.0,47,-99.99,,,-99.99,,2013-01-01 22:42:00,
2013-01-01 14:52:00,37.0,18.0,-100.00,East,85,14.0,26.0,46,-99.99,,,-99.99,,2013-01-01 22:52:00,
2013-01-01 15:02:00,36.0,17.0,-100.00,ENE,78,14.0,24.0,45,-99.99,,,-99.99,,2013-01-01 23:02:00,
2013-01-01 15:12:00,36.0,17.0,-100.00,ENE,78,15.0,25.0,46,-99.99,,,-99.99,,2013-01-01 23:12:00,
2013-01-01 15:22:00,36.0,17.0,-100.00,ENE,71,15.0,23.0,45,-99.99,,,-99.99,,2013-01-01 23:22:00,
2013-01-01 15:32:00,36.0,16.0,-100.00,ENE,78,14.0,21.0,43,-99.99,,,-99.99,,2013-01-01 23:32:00,
2013-01-01 15:42:00,36.0,16.0,-100.00,ENE,78,14.0,21.0,43,-99.99,,,-99.99,,2013-01-01 23:42:00,
2013-01-01 15:52:00,36.0,15.0,-100.00,ENE,77,14.0,25.0,42,-99.99,,,-99.99,,2013-01-01 23:52:00,
2013-01-01 16:02:00,35.0,14.0,-100.00,East,80,14.0,21.0,41,-99.99,,,-99.99,,2013-01-02 00:02:00,
2013-01-01 16:12:00,35.0,13.0,-100.00,East,84,13.0,23.0,39,-99.99,,,-99.99,,2013-01-02 00:12:00,
2013-01-01 16:22:00,35.0,12.0,-100.00,East,82,16.0,25.0,38,-99.99,,,-99.99,,2013-01-02 00:22:00,
2013-01-01 16:32:00,35.0,11.0,-100.00,East,81,16.0,26.0,37,-99.99,,,-99.99,,2013-01-02 00:32:00,
2013-01-01 16:42:00,35.0,12.0,-100.00,East,83,15.0,25.0,38,-99.99,,,-99.99,,2013-01-02 00:42:00,
2013-01-01 16:52:00,36.0,12.0,-100.00,East,83,14.0,22.0,36,-99.99,,,-99.99,,2013-01-02 00:52:00,
2013-01-01 17:02:00,36.0,10.0,-100.00,East,84,14.0,23.0,34,-99.99,,,-99.99,,2013-01-02 01:02:00,
2013-01-01 17:11:00,36.0,10.0,-100.00,East,82,16.0,25.0,33,-99.99,,,-99.99,,2013-01-02 01:11:00,
2013-01-01 17:22:00,35.0,9.0,-100.00,East,85,14.0,22.0,34,-99.99,,,-99.99,,2013-01-02 01:22:00,
2013-01-01 17:32:00,35.0,11.0,-100.00,East,91,13.0,22.0,37,-99.99,,,-99.99,,2013-01-02 01:32:00,
2013-01-01 17:42:00,35.0,11.0,-100.00,East,91,13.0,22.0,37,-99.99,,,-99.99,,2013-01-02 01:42:00,
2013-01-01 17:52:00,35.0,11.0,-100.00,East,90,14.0,23.0,36,-99.99,,,-99.99,,2013-01-02 01:52:00,
2013-01-01 18:02:00,35.0,11.0,-100.00,East,90,14.0,24.0,36,-99.99,,,-99.99,,2013-01-02 02:02:00,
2013-01-01 18:12:00,35.0,11.0,-100.00,East,89,14.0,21.0,37,-99.99,,,-99.99,,2013-01-02 02:12:00,
2013-01-01 18:22:00,35.0,11.0,-100.00,East,85,14.0,22.0,37,-99.99,,,-99.99,,2013-01-02 02:22:00,
2013-01-01 18:32:00,35.0,12.0,-100.00,East,88,13.0,21.0,38,-99.99,,,-99.99,,2013-01-02 02:32:00,
2013-01-01 18:42:00,35.0,12.0,-100.00,East,88,13.0,21.0,38,-99.99,,,-99.99,,2013-01-02 02:42:00,
2013-01-01 18:52:00,35.0,12.0,-100.00,East,88,13.0,20.0,38,-99.99,,,-99.99,,2013-01-02 02:52:00,
2013-01-01 19:02:00,35.0,13.0,-100.00,East,88,12.0,19.0,39,-99.99,,,-99.99,,2013-01-02 03:02:00,
2013-01-01 19:11:00,35.0,13.0,-100.00,East,88,12.0,18.0,39,-99.99,,,-99.99,,2013-01-02 03:11:00,
2013-01-01 19:22:00,35.0,13.0,-100.00,East,89,12.0,18.0,39,-99.99,,,-99.99,,2013-01-02 03:22:00,
2013-01-01 19:32:00,35.0,11.0,-100.00,East,89,13.0,21.0,37,-99.99,,,-99.99,,2013-01-02 03:32:00,
2013-01-01 19:42:00,35.0,11.0,-100.00,East,88,12.0,21.0,37,-99.99,,,-99.99,,2013-01-02 03:42:00,
2013-01-01 19:52:00,35.0,11.0,-100.00,East,93,14.0,22.0,36,-99.99,,,-99.99,,2013-01-02 03:52:00,
2013-01-01 20:02:00,35.0,11.0,-100.00,East,90,13.0,21.0,36,-99.99,,,-99.99,,2013-01-02 04:02:00,
2013-01-01 20:12:00,35.0,10.0,-100.00,East,92,14.0,22.0,35,-99.99,,,-99.99,,2013-01-02 04:12:00,
2013-01-01 20:22:00,35.0,11.0,-100.00,East,89,12.0,20.0,36,-99.99,,,-99.99,,2013-01-02 04:22:00,
2013-01-01 20:32:00,35.0,11.0,-100.00,East,88,12.0,21.0,36,-99.99,,,-99.99,,2013-01-02 04:32:00,
2013-01-01 20:42:00,35.0,11.0,-100.00,East,88,12.0,21.0,36,-99.99,,,-99.99,,2013-01-02 04:42:00,
2013-01-01 20:52:00,35.0,11.0,-100.00,East,89,13.0,20.0,36,-99.99,,,-99.99,,2013-01-02 04:52:00,
2013-01-01 21:02:00,35.0,11.0,-100.00,East,90,14.0,23.0,36,-99.99,,,-99.99,,2013-01-02 05:02:00,
2013-01-01 21:12:00,35.0,10.0,-100.00,East,91,13.0,20.0,35,-99.99,,,-99.99,,2013-01-02 05:12:00,
2013-01-01 21:22:00,35.0,11.0,-100.00,East,92,14.0,25.0,36,-99.99,,,-99.99,,2013-01-02 05:22:00,
2013-01-01 21:32:00,35.0,11.0,-100.00,East,89,14.0,22.0,36,-99.99,,,-99.99,,2013-01-02 05:32:00,
2013-01-01 21:42:00,35.0,10.0,-100.00,East,90,15.0,23.0,35,-99.99,,,-99.99,,2013-01-02 05:42:00,
2013-01-01 21:52:00,35.0,11.0,-100.00,East,90,14.0,23.0,36,-99.99,,,-99.99,,2013-01-02 05:52:00,
2013-01-01 22:02:00,35.0,11.0,-100.00,East,93,16.0,24.0,37,-99.99,,,-99.99,,2013-01-02 06:02:00,
2013-01-01 22:11:00,35.0,11.0,-100.00,East,92,15.0,26.0,37,-99.99,,,-99.99,,2013-01-02 06:11:00,
2013-01-01 22:22:00,35.0,11.0,-100.00,East,90,14.0,23.0,36,-99.99,,,-99.99,,2013-01-02 06:22:00,
2013-01-01 22:32:00,35.0,11.0,-100.00,East,93,14.0,25.0,37,-99.99,,,-99.99,,2013-01-02 06:32:00,
2013-01-01 22:42:00,35.0,11.0,-100.00,East,93,14.0,25.0,37,-99.99,,,-99.99,,2013-01-02 06:42:00,
2013-01-01 22:52:00,35.0,11.0,-100.00,East,91,14.0,21.0,37,-99.99,,,-99.99,,2013-01-02 06:52:00,
2013-01-01 23:02:00,35.0,11.0,-100.00,East,91,16.0,27.0,37,-99.99,,,-99.99,,2013-01-02 07:02:00,
2013-01-01 23:12:00,35.0,11.0,-100.00,East,93,16.0,24.0,37,-99.99,,,-99.99,,2013-01-02 07:12:00,
2013-01-01 23:22:00,35.0,12.0,-100.00,East,93,14.0,20.0,38,-99.99,,,-99.99,,2013-01-02 07:22:00,
2013-01-01 23:32:00,34.0,12.0,-100.00,East,93,13.0,22.0,39,-99.99,,,-99.99,,2013-01-02 07:32:00,
2013-01-01 23:42:00,34.0,12.0,-100.00,East,91,12.0,21.0,39,-99.99,,,-99.99,,2013-01-02 07:42:00,
2013-01-01 23:52:00,34.0,11.0,-100.00,East,89,14.0,23.0,38,-99.99,,,-99.99,,2013-01-02 07:52:00,